Tracking 25709 objects as of 23-May-2022
HD Live streaming from Space Station
objects crossing your sky now

STARLINK 1038

Track STARLINK 1038 now!
10-day predictions
STARLINK 1038 is classified as:


NORAD ID: 44743
Int'l Code: 2019-074AG
Perigee: 553.4 km
Apogee: 555.4 km
Inclination: 53.1 °
Period: 95.6 minutes
Semi major axis: 6925 km
RCS: Unknown
Launch date: November 11, 2019
Source: United States (US)
Launch site: AIR FORCE EASTERN TEST RANGE (AFETR)
aabbcc
Your satellite tracking list
Your tracking list is empty




NASA's NSSDC Master Catalog

Two Line Element Set (TLE):
1 44743U 19074AG  22142.84817194  .00001010  00000-0  86709-4 0  9992
2 44743  53.0572 332.3946 0001469  75.2518 284.8633 15.06393430139252
Source of the keplerian elements: AFSPC